EW8275 Weather Reports


Display with metric or nautical units.
time (UTC)temp
F
wind
direction
speed
MPH
gust
MPH
rain 1hr
in
rain 24hr
in
rain mn
in
humidity
%
barometer
mb
20200404225037 46 107 1.0 5.0 0.00 0.00 0.00 66 1022.6
20200404224535 46 107 1.0 5.0 0.00 0.00 0.00 67 1022.6
20200404224036 46 115 2.0 4.0 0.00 0.00 0.00 67 1022.7
20200404223528 46 112 2.0 4.0 0.00 0.00 0.00 67 1022.7
20200404223049 46 110 1.0 4.0 0.00 0.00 0.00 66 1022.7
20200404222538 47 107 1.0 4.0 0.00 0.00 0.00 66 1022.6
20200404222043 47 113 2.0 4.0 0.00 0.00 0.00 65 1022.6
20200404221540 47 120 1.0 4.0 0.00 0.00 0.00 64 1022.6
20200404221035 47 120 1.0 4.0 0.00 0.00 0.00 63 1022.6
20200404220559 47 118 1.0 4.0 0.00 0.00 0.00 63 1022.6
20200404220056 47 117 2.0 3.0 0.00 0.00 0.00 63 1022.6
20200404215534 47 117 2.0 4.0 0.00 0.00 0.00 61 1022.6
20200404215030 48 117 1.0 4.0 0.00 0.00 0.00 60 1022.6
20200404214538 48 115 1.0 5.0 0.00 0.00 0.00 60 1022.6
20200404214027 48 106 2.0 5.0 0.00 0.00 0.00 60 1022.5
20200404213532 48 121 3.0 5.0 0.00 0.00 0.00 60 1022.6
20200404213038 48 113 2.0 5.0 0.00 0.00 0.00 59 1022.5
20200404212549 48 111 3.0 6.0 0.00 0.00 0.00 60 1022.5
20200404212048 48 101 2.0 7.0 0.00 0.00 0.00 60 1022.6
20200404211543 48 109 1.0 5.0 0.00 0.00 0.00 60 1022.6
20200404211044 48 165 2.0 5.0 0.00 0.00 0.00 60 1022.7
20200404210541 48 99 2.0 5.0 0.00 0.00 0.00 60 1022.6
20200404210029 48 110 2.0 5.0 0.00 0.00 0.00 59 1022.7
20200404205541 48 116 2.0 5.0 0.00 0.00 0.00 60 1022.7
20200404205036 48 109 2.0 5.0 0.00 0.00 0.00 59 1022.7
20200404204542 48 107 1.0 3.0 0.00 0.00 0.00 59 1022.7
20200404204053 49 140 1.0 4.0 0.00 0.00 0.00 59 1022.7
20200404203554 49 139 1.0 4.0 0.00 0.00 0.00 60 1022.7
20200404203055 49 140 2.0 4.0 0.00 0.00 0.00 59 1022.7
20200404202538 49 142 1.0 4.0 0.00 0.00 0.00 59 1022.7
20200404202043 49 141 2.0 5.0 0.00 0.00 0.00 59 1022.7
20200404201530 49 140 1.0 6.0 0.00 0.00 0.00 59 1022.7
20200404201027 50 138 2.0 6.0 0.00 0.00 0.00 58 1022.8
20200404200558 50 117 2.0 5.0 0.00 0.00 0.00 58 1022.7
20200404200049 50 128 2.0 8.0 0.00 0.00 0.00 57 1022.7
20200404195535 51 138 3.0 8.0 0.00 0.00 0.00 56 1022.7
20200404195034 51 115 3.0 4.0 0.00 0.00 0.00 56 1022.7
20200404194548 51 118 2.0 5.0 0.00 0.00 0.00 56 1022.7
20200404194043 51 116 3.0 6.0 0.00 0.00 0.00 56 1022.6
20200404193528 51 132 3.0 6.0 0.00 0.00 0.00 55 1022.6
20200404193056 51 71 2.0 6.0 0.00 0.00 0.00 55 1022.6
20200404192534 51 118 3.0 5.0 0.00 0.00 0.00 55 1022.6
20200404192027 51 101 2.0 4.0 0.00 0.00 0.00 55 1022.7
20200404191544 52 117 2.0 7.0 0.00 0.00 0.00 55 1022.7
20200404191027 52 112 2.0 7.0 0.00 0.00 0.00 55 1022.6
20200404190550 52 92 2.0 5.0 0.00 0.00 0.00 54 1022.6
20200404190045 52 90 2.0 5.0 0.00 0.00 0.00 53 1022.6
20200404185535 52 117 1.0 6.0 0.00 0.00 0.00 53 1022.5
20200404185047 53 116 2.0 6.0 0.00 0.00 0.00 53 1022.5
20200404184531 53 130 2.0 5.0 0.00 0.00 0.00 52 1022.5
20200404184046 54 117 2.0 5.0 0.00 0.00 0.00 51 1022.4
20200404183544 54 115 2.0 7.0 0.00 0.00 0.00 51 1022.4
20200404183049 54 115 2.0 7.0 0.00 0.00 0.00 51 1022.4
20200404182547 54 128 3.0 4.0 0.00 0.00 0.00 51 1022.4
20200404182029 55 128 1.0 5.0 0.00 0.00 0.00 49 1022.4
20200404181539 55 128 1.0 5.0 0.00 0.00 0.00 49 1022.4
20200404181035 55 129 2.0 5.0 0.00 0.00 0.00 48 1022.4
20200404180545 55 125 1.0 5.0 0.00 0.00 0.00 48 1022.4
20200404180054 56 140 2.0 5.0 0.00 0.00 0.00 48 1022.3
20200404175537 56 125 2.0 8.0 0.00 0.00 0.00 48 1022.3
20200404175028 56 113 3.0 8.0 0.00 0.00 0.00 47 1022.3
20200404174538 56 142 3.0 6.0 0.00 0.00 0.00 47 1022.2
20200404174046 56 169 3.0 6.0 0.00 0.00 0.00 47 1022.2
20200404173542 56 118 2.0 7.0 0.00 0.00 0.00 49 1022.1
20200404173045 57 108 1.0 6.0 0.00 0.00 0.00 48 1022.1
20200404172556 57 150 2.0 6.0 0.00 0.00 0.00 47 1022.0
20200404172034 57 100 2.0 8.0 0.00 0.00 0.00 47 1022.0
20200404171539 57 116 3.0 8.0 0.00 0.00 0.00 46 1021.9
20200404171039 57 151 4.0 6.0 0.00 0.00 0.00 46 1021.9
20200404170549 58 129 0.0 9.0 0.00 0.00 0.00 46 1021.9
20200404170050 58 99 5.0 9.0 0.00 0.00 0.00 45 1021.9
20200404165537 58 138 1.0 5.0 0.00 0.00 0.00 46 1021.8
20200404165028 58 98 4.0 6.0 0.00 0.00 0.00 46 1021.9
20200404164551 58 82 4.0 8.0 0.00 0.00 0.00 45 1021.9
20200404164039 58 138 5.0 8.0 0.00 0.00 0.00 45 1022.0
20200404163546 58 197 2.0 7.0 0.00 0.00 0.00 45 1021.9
20200404163041 58 185 2.0 6.0 0.00 0.00 0.00 44 1021.9
20200404162531 58 175 4.0 10.0 0.00 0.00 0.00 45 1021.8
20200404162038 58 149 2.0 10.0 0.00 0.00 0.00 45 1021.9
20200404161535 59 186 3.0 6.0 0.00 0.00 0.00 46 1021.8
20200404161033 59 170 3.0 7.0 0.00 0.00 0.00 45 1021.9
20200404160534 58 174 1.0 9.0 0.00 0.00 0.00 45 1021.9
20200404160027 59 173 6.0 9.0 0.00 0.00 0.00 44 1021.9
20200404155602 59 157 1.0 6.0 0.00 0.00 0.00 44 1021.9
20200404155037 59 196 2.0 8.0 0.00 0.00 0.00 44 1022.0
20200404154538 58 174 2.0 10.0 0.00 0.00 0.00 45 1022.0
20200404154026 58 156 6.0 10.0 0.00 0.00 0.00 44 1022.0
20200404153605 59 164 5.0 9.0 0.00 0.00 0.00 42 1022.0
20200404153057 59 109 3.0 7.0 0.00 0.00 0.00 44 1022.0
20200404152555 59 177 3.0 7.0 0.00 0.00 0.00 43 1022.1
20200404152031 58 194 5.0 10.0 0.00 0.00 0.00 45 1022.1
20200404151535 58 158 4.0 10.0 0.00 0.00 0.00 43 1022.2
20200404151042 58 185 5.0 10.0 0.00 0.00 0.00 45 1022.2
20200404150539 58 152 2.0 10.0 0.00 0.00 0.00 44 1022.3
20200404150047 58 97 4.0 10.0 0.00 0.00 0.00 43 1022.3
20200404145533 59 208 4.0 8.0 0.00 0.00 0.00 43 1022.4
20200404145054 58 181 3.0 11.0 0.00 0.00 0.00 42 1022.5
20200404144558 59 219 4.0 11.0 0.00 0.00 0.00 43 1022.4
20200404144029 59 180 5.0 9.0 0.00 0.00 0.00 43 1022.5
20200404143548 58 208 1.0 9.0 0.00 0.00 0.00 43 1022.6
20200404143044 59 200 4.0 9.0 0.00 0.00 0.00 44 1022.6
20200404142548 58 228 5.0 8.0 0.00 0.00 0.00 43 1022.7
20200404142056 58 195 3.0 6.0 0.00 0.00 0.00 42 1022.6
20200404141553 59 247 4.0 9.0 0.00 0.00 0.00 42 1022.7
20200404141041 59 153 6.0 12.0 0.00 0.00 0.00 41 1022.7
20200404140539 59 212 6.0 12.0 0.00 0.00 0.00 45 1022.8
20200404140041 59 257 5.0 7.0 0.00 0.00 0.00 43 1022.8
20200404135534 59 147 5.0 7.0 0.00 0.00 0.00 42 1022.9
20200404135055 59 132 4.0 9.0 0.00 0.00 0.00 44 1022.8
20200404134553 59 126 4.0 9.0 0.00 0.00 0.00 42 1022.9
20200404134101 59 138 5.0 12.0 0.00 0.00 0.00 43 1022.8
20200404133532 59 160 5.0 10.0 0.00 0.00 0.00 43 1022.9
20200404133033 58 169 4.0 9.0 0.00 0.00 0.00 43 1022.9
20200404132529 59 176 5.0 11.0 0.00 0.00 0.00 41 1023.0
20200404132054 58 173 7.0 11.0 0.00 0.00 0.00 43 1023.0
20200404131548 58 147 6.0 10.0 0.00 0.00 0.00 43 1022.9
20200404131023 59 169 6.0 11.0 0.00 0.00 0.00 40 1023.0
20200404130548 59 162 6.0 11.0 0.00 0.00 0.00 43 1023.1
20200404130046 59 240 5.0 11.0 0.00 0.00 0.00 41 1023.0
20200404125558 59 143 6.0 10.0 0.00 0.00 0.00 41 1023.0
20200404125028 59 183 4.0 14.0 0.00 0.00 0.00 45 1022.9
20200404124536 58 134 7.0 14.0 0.00 0.00 0.00 40 1023.0
20200404124033 59 201 5.0 10.0 0.00 0.00 0.00 43 1023.0
20200404123538 59 158 5.0 10.0 0.00 0.00 0.00 40 1023.1
20200404123042 59 180 5.0 14.0 0.00 0.00 0.00 43 1023.1
20200404122554 58 199 5.0 14.0 0.00 0.00 0.00 43 1023.2
20200404122047 59 174 4.0 10.0 0.00 0.00 0.00 41 1023.1
20200404121543 59 170 5.0 12.0 0.00 0.00 0.00 41 1023.1
20200404121038 59 180 7.0 12.0 0.00 0.00 0.00 42 1023.2
20200404120539 58 230 4.0 12.0 0.00 0.00 0.00 42 1023.2
20200404120033 57 226 6.0 12.0 0.00 0.00 0.00 42 1023.3
20200404115532 58 129 4.0 10.0 0.00 0.00 0.00 41 1023.3
20200404115043 58 164 5.0 10.0 0.00 0.00 0.00 44 1023.3
20200404114552 58 107 4.0 11.0 0.00 0.00 0.00 44 1023.3
20200404114042 58 160 5.0 14.0 0.00 0.00 0.00 43 1023.3
20200404113536 58 149 4.0 12.0 0.00 0.00 0.00 42 1023.3
20200404113037 59 191 7.0 12.0 0.00 0.00 0.00 42 1023.4
20200404112606 57 136 6.0 12.0 0.00 0.00 0.00 43 1023.4
20200404112038 57 159 6.0 10.0 0.00 0.00 0.00 43 1023.5
20200404111536 58 211 3.0 9.0 0.00 0.00 0.00 47 1023.5
20200404111039 57 182 3.0 9.0 0.00 0.00 0.00 44 1023.5
20200404110550 56 197 5.0 10.0 0.00 0.00 0.00 44 1023.6
20200404110051 56 171 7.0 10.0 0.00 0.00 0.00 46 1023.6
20200404105532 57 161 3.0 10.0 0.00 0.00 0.00 45 1023.6
20200404105038 57 142 5.0 11.0 0.00 0.00 0.00 47 1023.8
20200404104538 58 171 5.0 8.0 0.00 0.00 0.00 46 1023.8
20200404104034 57 208 3.0 7.0 0.00 0.00 0.00 49 1023.8
20200404103530 57 136 4.0 9.0 0.00 0.00 0.00 47 1023.9
20200404103035 57 259 5.0 9.0 0.00 0.00 0.00 47 1023.9
20200404102539 56 136 3.0 8.0 0.00 0.00 0.00 48 1023.9
20200404102037 56 253 4.0 10.0 0.00 0.00 0.00 52 1024.0
20200404101533 55 176 6.0 11.0 0.00 0.00 0.00 49 1024.1
20200404101025 55 171 5.0 11.0 0.00 0.00 0.00 49 1024.1
20200404100540 56 159 4.0 12.0 0.00 0.00 0.00 49 1024.1
20200404100032 54 178 5.0 12.0 0.00 0.00 0.00 48 1024.0
20200404095606 56 185 4.0 10.0 0.00 0.00 0.00 48 1023.9
20200404095039 56 211 6.0 10.0 0.00 0.00 0.00 51 1023.9
20200404094528 56 259 4.0 9.0 0.00 0.00 0.00 49 1023.9
20200404094027 57 191 3.0 11.0 0.00 0.00 0.00 50 1023.9
20200404093545 56 210 5.0 11.0 0.00 0.00 0.00 50 1023.9
20200404093031 55 223 5.0 12.0 0.00 0.00 0.00 49 1023.9
20200404092555 55 174 7.0 10.0 0.00 0.00 0.00 49 1023.9
20200404092047 54 251 6.0 10.0 0.00 0.00 0.00 53 1023.8
20200404091538 55 226 6.0 12.0 0.00 0.00 0.00 51 1023.8
20200404091045 54 251 5.0 12.0 0.00 0.00 0.00 53 1023.8
20200404090557 55 198 6.0 11.0 0.00 0.00 0.00 52 1023.8
20200404090042 54 230 6.0 9.0 0.00 0.00 0.00 54 1023.8
20200404085544 53 193 4.0 7.0 0.00 0.00 0.00 60 1023.8
20200404085040 53 214 2.0 7.0 0.00 0.00 0.00 58 1023.8
20200404084537 52 180 3.0 8.0 0.00 0.00 0.00 60 1023.8
20200404084056 52 248 4.0 9.0 0.00 0.00 0.00 61 1023.7
20200404083535 51 163 3.0 9.0 0.00 0.00 0.00 63 1023.6
20200404083044 50 176 3.0 7.0 0.00 0.00 0.00 62 1023.6
20200404082541 50 156 4.0 7.0 0.00 0.00 0.00 65 1023.6
20200404082026 49 183 3.0 7.0 0.00 0.00 0.00 66 1023.5
20200404081554 49 186 3.0 7.0 0.00 0.00 0.00 69 1023.4
20200404081048 48 164 4.0 7.0 0.00 0.00 0.00 67 1023.4
20200404080528 48 186 4.0 8.0 0.00 0.00 0.00 67 1023.4
20200404080044 49 166 5.0 8.0 0.00 0.00 0.00 69 1023.3
20200404075540 48 162 3.0 8.0 0.00 0.00 0.00 70 1023.3
20200404075027 47 180 2.0 7.0 0.00 0.00 0.00 71 1023.2
20200404074536 46 175 4.0 7.0 0.00 0.00 0.00 69 1023.2
20200404074029 46 194 1.0 7.0 0.00 0.00 0.00 71 1023.2
20200404073543 45 197 3.0 7.0 0.00 0.00 0.00 73 1023.1
20200404073101 44 244 2.0 6.0 0.00 0.00 0.00 74 1023.1
20200404072602 43 182 1.0 5.0 0.00 0.00 0.00 74 1023.1
20200404072051 43 175 2.0 7.0 0.00 0.00 0.00 75 1023.1
20200404071532 42 200 3.0 7.0 0.00 0.00 0.00 75 1023.1
20200404071037 42 197 3.0 5.0 0.00 0.00 0.00 76 1023.1
20200404070543 42 161 3.0 5.0 0.00 0.00 0.00 77 1023.1
20200404070053 41 217 3.0 6.0 0.00 0.00 0.00 77 1023.1
20200404065546 41 197 3.0 6.0 0.00 0.00 0.00 78 1023.0
20200404065038 41 196 1.0 5.0 0.00 0.00 0.00 78 1023.0
20200404064532 40 195 2.0 5.0 0.00 0.00 0.00 79 1023.0
20200404064033 40 192 2.0 4.0 0.00 0.00 0.00 80 1023.0
20200404063535 39 190 3.0 4.0 0.00 0.00 0.00 82 1022.9
20200404063051 39 188 2.0 4.0 0.00 0.00 0.00 82 1022.8
20200404062550 39 185 1.0 4.0 0.00 0.00 0.00 82 1022.8
20200404062043 39 197 1.0 4.0 0.00 0.00 0.00 82 1022.7
20200404061544 38 192 1.0 4.0 0.00 0.00 0.00 83 1022.7
20200404061046 38 192 2.0 4.0 0.00 0.00 0.00 83 1022.6
20200404060545 38 192 1.0 4.0 0.00 0.00 0.00 83 1022.5
20200404060031 38 202 1.0 5.0 0.00 0.00 0.00 83 1022.6
20200404055541 38 202 1.0 5.0 0.00 0.00 0.00 84 1022.4
20200404055035 38 205 2.0 4.0 0.00 0.00 0.00 84 1022.3
20200404054553 37 205 1.0 3.0 0.00 0.00 0.00 85 1022.3
20200404054040 37 205 1.0 5.0 0.00 0.00 0.00 84 1022.2
20200404053533 37 207 2.0 5.0 0.00 0.00 0.00 84 1022.1
20200404053027 37 203 2.0 5.0 0.00 0.00 0.00 84 1022.0
20200404052535 37 173 0.0 5.0 0.00 0.00 0.00 84 1021.9
20200404052033 37 173 1.0 5.0 0.00 0.00 0.00 84 1021.9
20200404051530 37 171 2.0 4.0 0.00 0.00 0.00 83 1021.9
20200404051038 37 169 0.0 4.0 0.00 0.00 0.00 83 1021.9
20200404050536 38 169 1.0 6.0 0.00 0.00 0.00 83 1021.9
20200404050050 38 166 2.0 6.0 0.00 0.00 0.00 83 1021.9
20200404045601 38 177 2.0 6.0 0.00 0.00 0.00 83 1021.9
20200404045044 37 175 3.0 5.0 0.00 0.00 0.00 83 1021.9
20200404044538 38 192 2.0 4.0 0.00 0.00 0.00 83 1021.9
20200404044029 37 192 1.0 4.0 0.00 0.00 0.00 84 1021.8
20200404043548 38 192 1.0 5.0 0.00 0.00 0.00 83 1021.7
20200404043052 38 177 1.0 7.0 0.00 0.00 0.00 83 1021.7
20200404042559 38 186 4.0 7.0 0.00 0.00 0.00 83 1021.6
20200404042034 38 170 3.0 6.0 0.00 0.00 0.00 83 1021.7
20200404041542 38 185 1.0 6.0 0.00 0.00 0.00 83 1021.7
20200404041034 38 185 3.0 6.0 0.00 0.00 0.00 83 1021.6
20200404040540 38 178 2.0 6.0 0.00 0.00 0.00 84 1021.6
20200404040042 38 178 3.0 7.0 0.00 0.00 0.00 84 1021.5
20200404035544 38 175 3.0 7.0 0.00 0.00 0.00 84 1021.5
20200404035029 38 175 2.0 6.0 0.00 0.00 0.00 84 1021.5
20200404034537 38 170 2.0 6.0 0.00 0.00 0.00 84 1021.4
20200404034042 38 171 2.0 5.0 0.00 0.00 0.00 84 1021.4
20200404033542 39 164 1.0 5.0 0.00 0.00 0.00 84 1021.4
20200404033037 39 181 1.0 4.0 0.00 0.00 0.00 84 1021.3
20200404032536 39 181 1.0 6.0 0.00 0.00 0.00 84 1021.3
20200404032030 39 179 2.0 6.0 0.00 0.00 0.00 85 1021.3
20200404031532 39 182 2.0 6.0 0.00 0.00 0.00 85 1021.3
20200404031101 39 185 2.0 6.0 0.00 0.00 0.00 85 1021.3
20200404030528 39 192 2.0 6.0 0.00 0.00 0.00 86 1021.3
20200404030043 38 177 2.0 5.0 0.00 0.00 0.00 86 1021.4
20200404025531 38 171 2.0 5.0 0.00 0.00 0.00 86 1021.3
20200404025049 38 173 0.0 5.0 0.00 0.00 0.00 86 1021.3
20200404024534 38 173 2.0 5.0 0.00 0.00 0.00 86 1021.3
20200404024031 38 179 1.0 5.0 0.00 0.00 0.00 86 1021.3
20200404023544 38 185 2.0 5.0 0.00 0.00 0.00 87 1021.3
20200404023055 38 188 1.0 5.0 0.00 0.00 0.00 87 1021.3
20200404022556 38 189 1.0 5.0 0.00 0.00 0.00 87 1021.3
20200404022053 38 190 1.0 5.0 0.00 0.00 0.00 88 1021.4
20200404021534 38 188 1.0 5.0 0.00 0.00 0.00 88 1021.4
20200404021024 38 198 1.0 5.0 0.00 0.00 0.00 88 1021.4
20200404020549 39 190 2.0 5.0 0.00 0.00 0.00 89 1021.5
20200404020038 39 157 2.0 5.0 0.00 0.00 0.00 89 1021.4
20200404015602 39 188 2.0 4.0 0.00 0.00 0.00 89 1021.4
20200404015045 39 187 1.0 4.0 0.00 0.00 0.00 89 1021.4
20200404014548 39 187 1.0 5.0 0.00 0.00 0.00 89 1021.3
20200404014034 39 200 1.0 5.0 0.00 0.00 0.00 89 1021.3
20200404013541 39 184 1.0 4.0 0.00 0.00 0.00 90 1021.3
20200404013036 39 185 1.0 4.0 0.00 0.00 0.00 90 1021.3
20200404012535 38 185 2.0 4.0 0.00 0.00 0.00 91 1021.2
20200404012100 38 193 1.0 5.0 0.00 0.00 0.00 91 1021.2
20200404011551 38 195 3.0 5.0 0.00 0.00 0.00 92 1021.2
20200404011041 38 196 3.0 4.0 0.00 0.00 0.00 92 1021.2
20200404010538 38 292 2.0 3.0 0.00 0.00 0.00 92 1021.2
20200404010042 38 293 0.0 2.0 0.00 0.00 0.00 92 1021.2
20200404005539 38 293 0.0 2.0 0.00 0.00 0.00 92 1021.2
20200404005030 38 293 1.0 2.0 0.00 0.00 0.00 93 1021.1
20200404004619 38 293 0.0 0.0 0.00 0.00 0.00 93 1021.2
20200404004053 37 293 0.0 0.0 0.00 0.00 0.00 93 1021.1
20200404003539 37 294 0.0 0.0 0.00 0.00 0.00 93 1021.1
20200404003036 38 294 0.0 0.0 0.00 0.00 0.00 93 1021.1
20200404002548 38 294 0.0 2.0 0.00 0.00 0.00 93 1021.1
20200404002055 38 294 1.0 2.0 0.00 0.00 0.00 93 1021.0
20200404001600 37 294 0.0 0.0 0.00 0.00 0.00 93 1021.0
20200404001045 37 294 0.0 0.0 0.00 0.00 0.00 93 1021.0
20200404000545 38 294 0.0 0.0 0.00 0.00 0.00 93 1020.9
20200404000037 37 294 0.0 0.0 0.00 0.00 0.00 93 1020.9
20200403235543 38 294 0.0 0.0 0.00 0.00 0.00 93 1020.9
20200403235034 38 294 0.0 0.0 0.00 0.00 0.00 93 1020.8
20200403234552 38 294 0.0 0.0 0.00 0.00 0.00 93 1020.8
20200403234048 37 294 0.0 0.0 0.00 0.00 0.00 92 1020.7
20200403233547 38 294 0.0 0.0 0.00 0.00 0.00 92 1020.7
20200403233034 38 294 0.0 0.0 0.00 0.00 0.00 92 1020.7
20200403232537 38 294 0.0 0.0 0.00 0.00 0.00 93 1020.7
20200403232055 38 294 0.0 0.0 0.00 0.00 0.00 92 1020.6
20200403231553 38 294 0.0 0.0 0.00 0.00 0.00 92 1020.6
20200403231029 38 294 0.0 0.0 0.00 0.00 0.00 92 1020.5
20200403230541 38 294 0.0 0.0 0.00 0.00 0.00 92 1020.5
20200403230036 38 294 0.0 0.0 0.00 0.00 0.00 92 1020.6
20200403225547 38 294 0.0 0.0 0.00 0.00 0.00 92 1020.5